• In Kazakhstan
  • List of Countries
  • For 7 days
  • Water Temperature
  • Satellite Maps
  • Weather Map
  • News
  • Weather Widgets
  • user-avatar
    Login

    Hourly Weather Mauritius

    Today, 16 January, Wednesday

    Time Temperature Precipitation Wind Pressure Humidity
    00:00 +26°C° 0 mm 3 mps 724 mmHg 81%
    01:00 +26°C° 0 mm 3 mps 724 mmHg 81%
    02:00 +26°C° 0 mm 3 mps 724 mmHg 81%
    03:00 +25°C° 0 mm 3 mps 724 mmHg 81%
    04:00 +25°C° 0 mm 3 mps 724 mmHg 81%
    05:00 +26°C° 0 mm 3 mps 724 mmHg 80%
    06:00 +26°C° 0 mm 3 mps 724 mmHg 79%
    07:00 +26°C° 0 mm 3 mps 724 mmHg 78%
    08:00 +27°C° 0 mm 3 mps 724 mmHg 74%
    09:00 +28°C° 0 mm 3 mps 724 mmHg 70%
    10:00 +29°C° 0 mm 3 mps 725 mmHg 66%
    11:00 +29°C° 0.6 mm 3 mps 725 mmHg 66%
    12:00 +29°C° 0.6 mm 4 mps 724 mmHg 67%
    13:00 +29°C° 0.6 mm 4 mps 724 mmHg 67%
    14:00 +29°C° 1.7 mm 4 mps 724 mmHg 68%
    15:00 +29°C° 1.7 mm 4 mps 723 mmHg 70%
    16:00 +28°C° 1.7 mm 4 mps 723 mmHg 71%
    17:00 +28°C° 1.4 mm 4 mps 723 mmHg 74%
    18:00 +27°C° 1.4 mm 4 mps 723 mmHg 76%
    19:00 +27°C° 1.4 mm 4 mps 723 mmHg 78%
    20:00 +27°C° 0.3 mm 4 mps 723 mmHg 80%
    21:00 +26°C° 0.3 mm 4 mps 723 mmHg 81%
    22:00 +26°C° 0.3 mm 4 mps 724 mmHg 83%
    23:00 +26°C° 0.7 mm 4 mps 723 mmHg 84%

    Tomorrow, 17 January, Thursday

    Time Temperature Precipitation Wind Pressure Humidity
    00:00 +26°C° 0.7 mm 4 mps 723 mmHg 85%
    01:00 +26°C° 0.7 mm 4 mps 723 mmHg 85%
    02:00 +26°C° 1 mm 4 mps 723 mmHg 86%
    03:00 +26°C° 1 mm 4 mps 723 mmHg 86%
    04:00 +26°C° 1 mm 4 mps 723 mmHg 86%
    05:00 +26°C° 1.6 mm 4 mps 723 mmHg 86%
    06:00 +26°C° 1.6 mm 4 mps 723 mmHg 85%
    07:00 +26°C° 1.6 mm 4 mps 723 mmHg 84%
    08:00 +27°C° 1.3 mm 4 mps 723 mmHg 82%
    09:00 +27°C° 1.3 mm 4 mps 724 mmHg 79%
    10:00 +28°C° 1.3 mm 4 mps 724 mmHg 77%
    11:00 +28°C° 0.8 mm 4 mps 723 mmHg 75%
    12:00 +29°C° 0.8 mm 4 mps 723 mmHg 73%
    13:00 +29°C° 0.8 mm 4 mps 723 mmHg 72%
    14:00 +29°C° 0.4 mm 4 mps 723 mmHg 72%
    15:00 +29°C° 0.4 mm 4 mps 722 mmHg 72%
    16:00 +29°C° 0.4 mm 5 mps 722 mmHg 72%
    17:00 +28°C° 0.2 mm 4 mps 722 mmHg 75%
    18:00 +28°C° 0.2 mm 4 mps 722 mmHg 78%
    19:00 +27°C° 0.2 mm 4 mps 722 mmHg 81%
    20:00 +27°C° 0.1 mm 4 mps 723 mmHg 82%
    21:00 +27°C° 0.1 mm 4 mps 723 mmHg 83%
    22:00 +27°C° 0.1 mm 4 mps 723 mmHg 83%
    23:00 +26°C° 0 mm 3 mps 723 mmHg 84%

    Day after tomorrow, 18 January, Friday

    Time Temperature Precipitation Wind Pressure Humidity
    00:00 +26°C° 0 mm 3 mps 723 mmHg 84%
    01:00 +26°C° 0 mm 3 mps 723 mmHg 84%
    02:00 +26°C° 0 mm 3 mps 722 mmHg 84%
    03:00 +26°C° 0 mm 3 mps 722 mmHg 85%
    04:00 +26°C° 0 mm 3 mps 722 mmHg 85%
    05:00 +26°C° 0.4 mm 3 mps 722 mmHg 84%
    06:00 +26°C° 0.4 mm 3 mps 723 mmHg 83%
    07:00 +26°C° 0.4 mm 3 mps 723 mmHg 82%
    08:00 +27°C° 0 mm 3 mps 723 mmHg 78%
    09:00 +28°C° 0 mm 3 mps 724 mmHg 74%
    10:00 +29°C° 0 mm 4 mps 724 mmHg 70%
    11:00 +29°C° 0.3 mm 4 mps 723 mmHg 68%
    12:00 +30°C° 0.3 mm 4 mps 723 mmHg 66%
    13:00 +30°C° 0.3 mm 4 mps 723 mmHg 64%
    14:00 +30°C° 0.1 mm 4 mps 723 mmHg 65%
    15:00 +30°C° 0.1 mm 4 mps 722 mmHg 65%
    16:00 +30°C° 0.1 mm 4 mps 722 mmHg 66%
    17:00 +29°C° 0.3 mm 3 mps 722 mmHg 70%
    18:00 +28°C° 0.3 mm 3 mps 722 mmHg 74%
    19:00 +28°C° 0.3 mm 3 mps 722 mmHg 77%
    20:00 +27°C° 0.1 mm 3 mps 723 mmHg 79%
    21:00 +27°C° 0.1 mm 3 mps 723 mmHg 80%
    22:00 +27°C° 0.1 mm 3 mps 724 mmHg 82%
    23:00 +27°C° 0 mm 3 mps 723 mmHg 82%

    19 January, Saturday

    Time Temperature Precipitation Wind Pressure Humidity
    00:00 +27°C° 0 mm 3 mps 723 mmHg 83%
    01:00 +26°C° 0 mm 3 mps 723 mmHg 83%
    02:00 +26°C° 0 mm 3 mps 723 mmHg 83%
    03:00 +26°C° 0 mm 3 mps 722 mmHg 83%
    04:00 +26°C° 0 mm 3 mps 722 mmHg 83%
    05:00 +26°C° 0 mm 3 mps 723 mmHg 82%
    06:00 +26°C° 0 mm 3 mps 723 mmHg 81%
    07:00 +27°C° 0 mm 3 mps 723 mmHg 81%
    08:00 +27°C° 0 mm 3 mps 724 mmHg 76%
    09:00 +28°C° 0 mm 3 mps 724 mmHg 72%
    10:00 +29°C° 0 mm 3 mps 724 mmHg 68%
    11:00 +30°C° 0.1 mm 3 mps 724 mmHg 67%
    12:00 +30°C° 0.1 mm 4 mps 724 mmHg 66%
    13:00 +30°C° 0.1 mm 4 mps 723 mmHg 64%
    14:00 +30°C° 0.3 mm 4 mps 723 mmHg 66%
    15:00 +30°C° 0.3 mm 4 mps 723 mmHg 68%
    16:00 +29°C° 0.3 mm 4 mps 722 mmHg 69%
    17:00 +29°C° 0.2 mm 4 mps 722 mmHg 72%
    18:00 +28°C° 0.2 mm 4 mps 723 mmHg 75%
    19:00 +27°C° 0.2 mm 4 mps 723 mmHg 78%
    20:00 +27°C° 0 mm 4 mps 723 mmHg 79%
    21:00 +27°C° 0 mm 4 mps 724 mmHg 81%
    22:00 +27°C° 0 mm 3 mps 724 mmHg 82%
    23:00 +26°C° 0 mm 3 mps 724 mmHg 83%

    20 January, Sunday

    Time Temperature Precipitation Wind Pressure Humidity
    00:00 +26°C° 0 mm 3 mps 723 mmHg 83%
    01:00 +26°C° 0 mm 3 mps 723 mmHg 83%
    02:00 +26°C° 0 mm 3 mps 723 mmHg 83%
    03:00 +26°C° 0 mm 3 mps 723 mmHg 83%
    04:00 +26°C° 0 mm 3 mps 722 mmHg 83%
    05:00 +26°C° 0 mm 3 mps 723 mmHg 82%
    06:00 +26°C° 0 mm 3 mps 723 mmHg 81%
    07:00 +26°C° 0 mm 4 mps 723 mmHg 80%
    08:00 +27°C° 0.2 mm 4 mps 724 mmHg 77%
    09:00 +28°C° 0.2 mm 4 mps 724 mmHg 74%
    10:00 +28°C° 0.2 mm 4 mps 724 mmHg 72%
    11:00 +29°C° 0 mm 4 mps 724 mmHg 67%
    12:00 +30°C° 0 mm 4 mps 723 mmHg 63%
    13:00 +30°C° 0 mm 4 mps 723 mmHg 59%
    14:00 +30°C° 0 mm 4 mps 723 mmHg 60%
    15:00 +30°C° 0 mm 4 mps 723 mmHg 61%
    16:00 +30°C° 0 mm 4 mps 722 mmHg 62%
    17:00 +29°C° 0 mm 4 mps 723 mmHg 67%
    18:00 +28°C° 0 mm 4 mps 723 mmHg 71%
    19:00 +27°C° 0 mm 4 mps 723 mmHg 75%
    20:00 +27°C° 0 mm 4 mps 723 mmHg 76%
    21:00 +27°C° 0 mm 3 mps 724 mmHg 77%
    22:00 +27°C° 0 mm 3 mps 724 mmHg 78%
    23:00 +26°C° 0 mm 3 mps 724 mmHg 79%

    21 January, Monday

    Time Temperature Precipitation Wind Pressure Humidity
    00:00 +26°C° 0 mm 3 mps 724 mmHg 79%
    01:00 +26°C° 0 mm 3 mps 723 mmHg 79%
    02:00 +26°C° 0.1 mm 3 mps 723 mmHg 80%
    03:00 +26°C° 0.1 mm 3 mps 723 mmHg 81%
    04:00 +26°C° 0.1 mm 3 mps 723 mmHg 81%
    05:00 +26°C° 0.2 mm 3 mps 723 mmHg 81%
    06:00 +26°C° 0.2 mm 4 mps 723 mmHg 81%
    07:00 +26°C° 0.2 mm 4 mps 724 mmHg 80%
    08:00 +27°C° 0 mm 4 mps 724 mmHg 76%
    09:00 +28°C° 0 mm 4 mps 724 mmHg 71%
    10:00 +28°C° 0 mm 4 mps 724 mmHg 67%
    11:00 +29°C° 0 mm 4 mps 724 mmHg 64%
    12:00 +30°C° 0 mm 4 mps 724 mmHg 61%
    13:00 +30°C° 0 mm 4 mps 723 mmHg 58%
    14:00 +30°C° 0 mm 4 mps 723 mmHg 59%
    15:00 +30°C° 0 mm 4 mps 723 mmHg 60%
    16:00 +29°C° 0 mm 4 mps 722 mmHg 61%
    17:00 +28°C° 0 mm 4 mps 723 mmHg 64%
    18:00 +28°C° 0 mm 4 mps 723 mmHg 67%
    19:00 +27°C° 0 mm 4 mps 723 mmHg 71%
    20:00 +27°C° 0 mm 4 mps 723 mmHg 71%
    21:00 +26°C° 0 mm 3 mps 723 mmHg 71%
    22:00 +26°C° 0 mm 3 mps 724 mmHg 71%
    23:00 +26°C° 0 mm 3 mps 724 mmHg 73%
    Show more